This is the latest recevied weather packets stored in our database for station/object W2MMD-13. If no packets are shown the sender has not sent any weather packets the latest 10 day(s).
| Time | Temp. | Humidity | Pressure | Rain* | Wind** | Luminosity | Snow |
|---|---|---|---|---|---|---|---|
| 1778027919 | 21.11° C | 63% | - | 0 mm | - | - | - |
| 1778027319 | 21.67° C | 61% | - | 0 mm | - | - | - |
| 1778026732 | 21.67° C | 58% | - | 0 mm | - | - | - |
| 1778026719 | 21.67° C | 58% | - | 0 mm | - | - | - |
| 1778026119 | 22.22° C | 55% | - | 0 mm | - | - | - |
| 1778025520 | 22.78° C | 55% | - | 0 mm | - | - | - |
| 1778024920 | 23.33° C | 53% | - | 0 mm | - | - | - |
| 1778024320 | 23.89° C | 50% | - | 0 mm | - | - | - |
| 1778023720 | 24.44° C | 45% | - | 0 mm | - | - | - |
| 1778023120 | 25° C | 45% | - | 0 mm | - | - | - |
| 1778022520 | 25.56° C | 44% | - | 0 mm | - | - | - |
| 1778021920 | 25.56° C | 43% | - | 0 mm | - | - | - |
| 1778021320 | 26.11° C | 42% | - | 0 mm | - | - | - |
| 1778020720 | 26.67° C | 42% | - | 0 mm | - | - | - |
| 1778020120 | 26.67° C | 42% | - | 0 mm | - | - | - |
| 1778019520 | 26.11° C | 43% | - | 0 mm | - | - | - |
| 1778018920 | 26.11° C | 43% | - | 0 mm | - | - | - |
| 1778018320 | 26.67° C | 42% | - | 0 mm | - | - | - |
| 1778017720 | 26.67° C | 42% | - | 0 mm | - | - | - |
| 1778017120 | 27.22° C | 42% | - | 0 mm | - | - | - |
| 1778016520 | 27.22° C | 41% | - | 0 mm | - | - | - |
| 1778015920 | 27.22° C | 40% | - | 0 mm | - | - | - |
| 1778015320 | 27.78° C | 39% | - | 0 mm | - | - | - |
| 1778014719 | 27.78° C | 39% | - | 0 mm | - | - | - |
| 1778014120 | 27.78° C | 39% | - | 0 mm | - | - | - |
* Rain latest hour (hover to see other rain measurements)
** Current wind speed in m/s (hover to see current wind gust speed)